YAOGAN-40 03B

Last updated on Tue Oct 07 2025 00:02:06 GMT+0000 (Coordinated Universal Time)

1 65545U 25199B 25279.48807491 .00000218 00000+0 10807-3 0 9996 2 65545 85.9954 157.9342 0001842 95.8735 264.2658 14.12371099 4228
UTC large
Height (km)
Speed (km/s)
/
Latitude / Longitude
Inclination (degrees)
Orbital Period (minutes)
Azimuth
Elevation
Range (km)
Doppler Factor

Next 0 passes for location: London (51.5072 / 0.1276)

Sorry there are no passes over London.
YAOGAN-40 03B